Tracking 29892 objects as of 21-Nov-2024
HD Live streaming from Space Station
objects crossing your sky now

SL-14 DEB

Track SL-14 DEB now!
10-day predictions


NORAD ID: 25221
Int'l Code: 1987-068AY
Perigee: 938.8 km
Apogee: 1,182.5 km
Inclination: 82.3 °
Period: 106.3 minutes
Semi major axis: 7431 km
RCS: 0.077 m2 (small)
Launch date: August 18, 1987
Source: Commonwealth of Independent States (former USSR) (CIS)
Launch site: PLESETSK MISSILE AND SPACE COMPLEX (PKMTR)

Note: This is SATELLITE DEBRIS
Your satellite tracking list
Your tracking list is empty




NASA's NSSDC Master Catalog

Two Line Element Set (TLE):
1 25221U 87068AY  24325.59674816  .00000508  00000-0  65671-3 0  9994
2 25221  82.2992 184.0404 0163960 153.0167 236.7346 13.55099190320609
Source of the keplerian elements: AFSPC